| time (UTC) | temp C | wind direction | speed KPH | gust KPH | rain 1hr cm | rain 24hr cm | rain mn cm | humidity % | barometer mb |
| 20260903084138 | 3 | 245 | 11.3 | 24.1 | 0.00 | 0.00 | 0.00 | 85 | 718.6 |
| 20260903083526 | 3 | 246 | 11.3 | 24.1 | 0.00 | 0.00 | 0.00 | 81 | 718.3 |
| 20260903082525 | 3 | 256 | 11.3 | 29.0 | 0.00 | 0.00 | 0.00 | 81 | 718.2 |
| 20260903081139 | 3 | 266 | 8.0 | 17.7 | 0.00 | 0.00 | 0.00 | 84 | 718.2 |
| 20260903080526 | 3 | 256 | 11.3 | 24.1 | 0.00 | 0.00 | 0.00 | 84 | 718.1 |
| 20260903075526 | 2 | 274 | 8.0 | 20.9 | 0.00 | 0.00 | 0.00 | 84 | 718.0 |
| 20260903074139 | 2 | 276 | 8.0 | 22.5 | 0.00 | 0.00 | 0.00 | 85 | 718.1 |
| 20260903073525 | 2 | 256 | 12.9 | 19.3 | 0.00 | 0.00 | 0.00 | 84 | 718.1 |
| 20260903072525 | 2 | 262 | 11.3 | 24.1 | 0.00 | 0.00 | 0.00 | 84 | 718.0 |
| 20260903071139 | 2 | 277 | 14.5 | 25.7 | 0.00 | 0.00 | 0.00 | 84 | 717.9 |
| 20260903070526 | 1 | 290 | 14.5 | 37.0 | 0.00 | 0.00 | 0.00 | 86 | 717.8 |
| 20260903065526 | 1 | 322 | 12.9 | 24.1 | 0.00 | 0.00 | 0.00 | 85 | 717.8 |
| 20260903064138 | 1 | 333 | 12.9 | 27.4 | 0.00 | 0.00 | 0.00 | 87 | 717.7 |
| 20260903063525 | 1 | 305 | 11.3 | 24.1 | 0.00 | 0.00 | 0.00 | 86 | 717.7 |
| 20260903062526 | 1 | 301 | 14.5 | 24.1 | 0.00 | 0.00 | 0.00 | 85 | 717.6 |
| 20260903061139 | 1 | 322 | 14.5 | 27.4 | 0.00 | 0.00 | 0.00 | 87 | 717.6 |
| 20260903060526 | 1 | 320 | 17.7 | 29.0 | 0.00 | 0.00 | 0.00 | 84 | 717.5 |
| 20260903055525 | 1 | 320 | 16.1 | 27.4 | 0.00 | 0.00 | 0.00 | 86 | 717.5 |
| 20260903054138 | 1 | 316 | 16.1 | 30.6 | 0.00 | 0.00 | 0.00 | 83 | 717.5 |
| 20260903053525 | 1 | 325 | 22.5 | 33.8 | 0.00 | 0.00 | 0.00 | 81 | 717.4 |
| 20260903052526 | 1 | 320 | 19.3 | 32.2 | 0.00 | 0.00 | 0.00 | 82 | 717.3 |
| 20260903051139 | 1 | 327 | 22.5 | 37.0 | 0.00 | 0.00 | 0.00 | 80 | 717.3 |
| 20260903050525 | 1 | 315 | 19.3 | 32.2 | 0.00 | 0.00 | 0.00 | 83 | 717.0 |
| 20260903045526 | 1 | 314 | 17.7 | 37.0 | 0.00 | 0.00 | 0.00 | 82 | 717.3 |
| 20260903044138 | 1 | 297 | 20.9 | 32.2 | 0.00 | 0.00 | 0.00 | 85 | 717.3 |
| 20260903043525 | 1 | 314 | 20.9 | 38.6 | 0.00 | 0.00 | 0.00 | 80 | 717.0 |
| 20260903042526 | 1 | 319 | 17.7 | 32.2 | 0.00 | 0.00 | 0.00 | 82 | 717.3 |
| 20260903041138 | 1 | 316 | 17.7 | 30.6 | 0.00 | 0.00 | 0.00 | 79 | 717.3 |
| 20260903040526 | 1 | 321 | 19.3 | 35.4 | 0.00 | 0.00 | 0.00 | 80 | 717.3 |
| 20260903035526 | 1 | 309 | 17.7 | 35.4 | 0.00 | 0.00 | 0.00 | 80 | 717.3 |
| 20260903034525 | 1 | 279 | 19.3 | 37.0 | 0.00 | 0.00 | 0.00 | 79 | 717.4 |
| 20260903033525 | 1 | 281 | 17.7 | 33.8 | 0.00 | 0.00 | 0.00 | 84 | 717.5 |
| 20260903032526 | 1 | 306 | 16.1 | 29.0 | 0.00 | 0.00 | 0.00 | 86 | 717.4 |
| 20260903031139 | 1 | 288 | 14.5 | 32.2 | 0.00 | 0.00 | 0.00 | 84 | 717.4 |
| 20260903030526 | 1 | 282 | 17.7 | 33.8 | 0.00 | 0.00 | 0.00 | 81 | 717.4 |
| 20260903025526 | 1 | 281 | 27.4 | 43.5 | 0.00 | 0.00 | 0.00 | 76 | 717.4 |
| 20260903024526 | 1 | 278 | 27.4 | 37.0 | 0.00 | 0.00 | 0.00 | 79 | 717.4 |
| 20260903023526 | 1 | 267 | 25.7 | 40.2 | 0.00 | 0.00 | 0.00 | 82 | 717.4 |
| 20260903022526 | 1 | 273 | 20.9 | 33.8 | 0.00 | 0.00 | 0.00 | 84 | 717.5 |
| 20260903021138 | 1 | 278 | 24.1 | 37.0 | 0.00 | 0.00 | 0.00 | 84 | 717.5 |
| 20260903020526 | 1 | 278 | 25.7 | 41.8 | 0.00 | 0.00 | 0.00 | 88 | 717.5 |
| 20260903015526 | 1 | 264 | 17.7 | 27.4 | 0.00 | 0.00 | 0.00 | 100 | 717.5 |
| 20260903014138 | 1 | 275 | 9.7 | 25.7 | 0.00 | 0.00 | 0.00 | 100 | 717.6 |
| 20260903013525 | 1 | 273 | 17.7 | 32.2 | 0.00 | 0.00 | 0.00 | 99 | 717.6 |
| 20260903012525 | 1 | 273 | 19.3 | 30.6 | 0.00 | 0.00 | 0.00 | 99 | 717.6 |
| 20260903011139 | 1 | 276 | 20.9 | 30.6 | 0.00 | 0.00 | 0.00 | 94 | 717.7 |
| 20260903010526 | 1 | 299 | 12.9 | 25.7 | 0.00 | 0.00 | 0.00 | 96 | 717.6 |
| 20260903005526 | 1 | 293 | 14.5 | 25.7 | 0.00 | 0.00 | 0.00 | 94 | 717.6 |
| 20260903004139 | 1 | 279 | 8.0 | 27.4 | 0.00 | 0.00 | 0.00 | 100 | 717.6 |
| 20260903003526 | 1 | 291 | 9.7 | 37.0 | 0.00 | 0.00 | 0.00 | 100 | 717.6 |
| 20260903002526 | 2 | 286 | 17.7 | 37.0 | 0.00 | 0.00 | 0.00 | 86 | 717.5 |
| 20260903001538 | 1 | 275 | 20.9 | 35.4 | 0.00 | 0.00 | 0.00 | 96 | 717.6 |
| 20260903000525 | 1 | 288 | 24.1 | 41.8 | 0.00 | 0.00 | 0.00 | 92 | 717.6 |
| 20260902235525 | 1 | 286 | 20.9 | 48.3 | 0.00 | 0.00 | 0.00 | 93 | 717.7 |
| 20260902234139 | 2 | 283 | 25.7 | 41.8 | 0.00 | 0.00 | 0.00 | 83 | 717.6 |
| 20260902233525 | 1 | 291 | 12.9 | 33.8 | 0.00 | 0.00 | 0.00 | 95 | 717.7 |
| 20260902232525 | 1 | 280 | 14.5 | 37.0 | 0.00 | 0.00 | 0.00 | 89 | 717.7 |
| 20260902231526 | 1 | 280 | 17.7 | 35.4 | 0.00 | 0.00 | 0.00 | 99 | 717.7 |
| 20260902230526 | 1 | 293 | 11.3 | 25.7 | 0.00 | 0.00 | 0.00 | 100 | 717.7 |
| 20260902225526 | 1 | 263 | 12.9 | 22.5 | 0.00 | 0.00 | 0.00 | 96 | 717.7 |
| 20260902224139 | 2 | 277 | 17.7 | 33.8 | 0.00 | 0.00 | 0.00 | 95 | 717.7 |
| 20260902223526 | 2 | 278 | 19.3 | 40.2 | 0.00 | 0.00 | 0.00 | 90 | 717.9 |
| 20260902222526 | 2 | 301 | 17.7 | 30.6 | 0.00 | 0.00 | 0.00 | 91 | 717.9 |
| 20260902221139 | 2 | 305 | 25.7 | 33.8 | 0.00 | 0.00 | 0.00 | 90 | 717.7 |
| 20260902220525 | 2 | 290 | 27.4 | 40.2 | 0.00 | 0.00 | 0.00 | 89 | 717.7 |
| 20260902215525 | 1 | 282 | 24.1 | 37.0 | 0.00 | 0.00 | 0.00 | 92 | 717.7 |
| 20260902214139 | 1 | 269 | 30.6 | 43.5 | 0.00 | 0.00 | 0.00 | 92 | 717.7 |
| 20260902213525 | 1 | 264 | 33.8 | 46.7 | 0.00 | 0.00 | 0.00 | 97 | 717.7 |
| 20260902211139 | 1 | 264 | 37.0 | 53.1 | 0.00 | 0.00 | 0.00 | 94 | 717.7 |
| 20260902210526 | 2 | 293 | 25.7 | 51.5 | 0.00 | 0.00 | 0.00 | 87 | 717.7 |
| 20260902205526 | 2 | 314 | 25.7 | 43.5 | 0.00 | 0.00 | 0.00 | 83 | 717.8 |
| 20260902204140 | 2 | 298 | 19.3 | 38.6 | 0.00 | 0.00 | 0.00 | 84 | 717.8 |
| 20260902203525 | 2 | 284 | 19.3 | 33.8 | 0.00 | 0.00 | 0.00 | 82 | 717.6 |
| 20260902202526 | 2 | 283 | 20.9 | 45.1 | 0.00 | 0.00 | 0.00 | 85 | 717.8 |
| 20260902201139 | 2 | 279 | 32.2 | 41.8 | 0.00 | 0.00 | 0.00 | 79 | 717.7 |
| 20260902200526 | 2 | 272 | 24.1 | 40.2 | 0.00 | 0.00 | 0.00 | 83 | 717.7 |
| 20260902195526 | 2 | 314 | 24.1 | 48.3 | 0.00 | 0.00 | 0.00 | 91 | 717.9 |
| 20260902194139 | 3 | 14 | 9.7 | 17.7 | 0.00 | 0.00 | 0.00 | 100 | 718.0 |
| 20260902193526 | 3 | 12 | 12.9 | 20.9 | 0.00 | 0.00 | 0.00 | 100 | 717.9 |
| 20260902192525 | 3 | 16 | 12.9 | 19.3 | 0.00 | 0.00 | 0.00 | 100 | 717.9 |
| 20260902191139 | 3 | 13 | 14.5 | 24.1 | 0.00 | 0.00 | 0.00 | 100 | 717.9 |
| 20260902190525 | 3 | 9 | 14.5 | 25.7 | 0.00 | 0.00 | 0.00 | 100 | 717.9 |
| 20260902185526 | 3 | 2 | 11.3 | 29.0 | 0.00 | 0.00 | 0.00 | 98 | 717.8 |
| 20260902184139 | 3 | 20 | 11.3 | 17.7 | 0.00 | 0.00 | 0.00 | 100 | 717.8 |
| 20260902183526 | 3 | 29 | 11.3 | 16.1 | 0.00 | 0.00 | 0.00 | 100 | 717.7 |
| 20260902182526 | 3 | 23 | 11.3 | 17.7 | 0.00 | 0.00 | 0.00 | 100 | 717.5 |
| 20260902181139 | 3 | 25 | 11.3 | 17.7 | 0.00 | 0.00 | 0.00 | 100 | 717.5 |
| 20260902180526 | 3 | 24 | 12.9 | 16.1 | 0.00 | 0.00 | 0.00 | 100 | 717.4 |
| 20260902175526 | 3 | 23 | 16.1 | 24.1 | 0.00 | 0.00 | 0.00 | 100 | 717.3 |
| 20260902174139 | 3 | 24 | 11.3 | 16.1 | 0.00 | 0.00 | 0.00 | 100 | 717.3 |
| 20260902173525 | 3 | 33 | 11.3 | 17.7 | 0.00 | 0.00 | 0.00 | 100 | 717.3 |
| 20260902172526 | 3 | 20 | 11.3 | 19.3 | 0.00 | 0.00 | 0.00 | 100 | 717.1 |
| 20260902171139 | 3 | 18 | 16.1 | 24.1 | 0.00 | 0.00 | 0.00 | 100 | 717.0 |
| 20260902170526 | 3 | 12 | 9.7 | 14.5 | 0.00 | 0.00 | 0.00 | 100 | 717.1 |
| 20260902165526 | 3 | 15 | 16.1 | 20.9 | 0.00 | 0.00 | 0.00 | 100 | 717.1 |
| 20260902164139 | 3 | 23 | 14.5 | 17.7 | 0.00 | 0.00 | 0.00 | 100 | 717.1 |
| 20260902163526 | 3 | 22 | 9.7 | 16.1 | 0.00 | 0.00 | 0.00 | 100 | 717.3 |
| 20260902162526 | 3 | 17 | 11.3 | 19.3 | 0.00 | 0.00 | 0.00 | 99 | 717.1 |
| 20260902161139 | 3 | 24 | 12.9 | 17.7 | 0.00 | 0.00 | 0.00 | 99 | 717.1 |
| 20260902160525 | 3 | 29 | 12.9 | 19.3 | 0.00 | 0.00 | 0.00 | 98 | 717.3 |
| 20260902155526 | 4 | 28 | 11.3 | 14.5 | 0.00 | 0.00 | 0.00 | 96 | 717.3 |
| 20260902154139 | 3 | 23 | 9.7 | 16.1 | 0.00 | 0.00 | 0.00 | 93 | 717.4 |
| 20260902153526 | 4 | 34 | 9.7 | 14.5 | 0.00 | 0.00 | 0.00 | 93 | 717.5 |
| 20260902152525 | 4 | 20 | 4.8 | 11.3 | 0.00 | 0.00 | 0.00 | 93 | 717.6 |
| 20260902151139 | 3 | 16 | 11.3 | 17.7 | 0.00 | 0.00 | 0.00 | 95 | 717.6 |
| 20260902150526 | 3 | 28 | 14.5 | 19.3 | 0.00 | 0.00 | 0.00 | 94 | 717.4 |
| 20260902145526 | 3 | 29 | 14.5 | 17.7 | 0.00 | 0.00 | 0.00 | 93 | 717.4 |
| 20260902144139 | 3 | 31 | 14.5 | 17.7 | 0.00 | 0.00 | 0.00 | 97 | 717.4 |
| 20260902143525 | 4 | 32 | 11.3 | 17.7 | 0.00 | 0.00 | 0.00 | 94 | 717.6 |
| 20260902142526 | 4 | 25 | 9.7 | 16.1 | 0.00 | 0.00 | 0.00 | 94 | 717.6 |
| 20260902141139 | 5 | 9 | 3.2 | 14.5 | 0.00 | 0.00 | 0.00 | 94 | 717.6 |
| 20260902140526 | 5 | 23 | 3.2 | 9.7 | 0.00 | 0.00 | 0.00 | 92 | 717.5 |
| 20260902135526 | 6 | 246 | 1.6 | 12.9 | 0.00 | 0.00 | 0.00 | 89 | 717.6 |
| 20260902134138 | 6 | 1 | 3.2 | 11.3 | 0.00 | 0.00 | 0.00 | 85 | 717.6 |
| 20260902133526 | 5 | 17 | 6.4 | 14.5 | 0.00 | 0.00 | 0.00 | 90 | 717.6 |
| 20260902132526 | 5 | 347 | 3.2 | 9.7 | 0.00 | 0.00 | 0.00 | 86 | 717.6 |
| 20260902131139 | 5 | 330 | 1.6 | 8.0 | 0.00 | 0.00 | 0.00 | 89 | 717.7 |
| 20260902130526 | 5 | 27 | 3.2 | 8.0 | 0.00 | 0.00 | 0.00 | 92 | 717.7 |
| 20260902125526 | 5 | 3 | 4.8 | 9.7 | 0.00 | 0.00 | 0.00 | 86 | 717.7 |
| 20260902124138 | 6 | 332 | 1.6 | 8.0 | 0.00 | 0.00 | 0.00 | 85 | 717.7 |
| 20260902123526 | 6 | 268 | 4.8 | 17.7 | 0.00 | 0.00 | 0.00 | 88 | 717.8 |
| 20260902122526 | 5 | 269 | 9.7 | 16.1 | 0.00 | 0.00 | 0.00 | 86 | 717.8 |
| 20260902121139 | 5 | 290 | 1.6 | 12.9 | 0.00 | 0.00 | 0.00 | 88 | 717.8 |
| 20260902120525 | 5 | 190 | 3.2 | 9.7 | 0.00 | 0.00 | 0.00 | 91 | 717.8 |
| 20260902115525 | 5 | 150 | 4.8 | 11.3 | 0.00 | 0.00 | 0.00 | 92 | 717.8 |
| 20260902114139 | 5 | 241 | 6.4 | 16.1 | 0.00 | 0.00 | 0.00 | 85 | 717.8 |
| 20260902113526 | 5 | 260 | 11.3 | 16.1 | 0.00 | 0.00 | 0.00 | 86 | 717.9 |
| 20260902112526 | 5 | 251 | 11.3 | 14.5 | 0.00 | 0.00 | 0.00 | 92 | 717.9 |
| 20260902111139 | 5 | 248 | 11.3 | 14.5 | 0.00 | 0.00 | 0.00 | 86 | 717.9 |
| 20260902110526 | 5 | 259 | 9.7 | 16.1 | 0.00 | 0.00 | 0.00 | 86 | 717.9 |
| 20260902105525 | 5 | 258 | 9.7 | 16.1 | 0.00 | 0.00 | 0.00 | 81 | 718.0 |
| 20260902104139 | 5 | 256 | 11.3 | 16.1 | 0.00 | 0.00 | 0.00 | 85 | 717.9 |
| 20260902103526 | 4 | 245 | 12.9 | 19.3 | 0.00 | 0.00 | 0.00 | 82 | 717.9 |
| 20260902102525 | 4 | 246 | 14.5 | 19.3 | 0.00 | 0.00 | 0.00 | 82 | 718.0 |
| 20260902101139 | 4 | 248 | 16.1 | 20.9 | 0.00 | 0.00 | 0.00 | 87 | 718.0 |
| 20260902100526 | 4 | 238 | 14.5 | 20.9 | 0.00 | 0.00 | 0.00 | 85 | 718.0 |
| 20260902095526 | 5 | 237 | 12.9 | 20.9 | 0.00 | 0.00 | 0.00 | 84 | 718.0 |
| 20260902094139 | 5 | 240 | 12.9 | 19.3 | 0.00 | 0.00 | 0.00 | 80 | 718.0 |
| 20260902093526 | 4 | 236 | 11.3 | 16.1 | 0.00 | 0.00 | 0.00 | 83 | 718.0 |
| 20260902092526 | 4 | 232 | 16.1 | 20.9 | 0.00 | 0.00 | 0.00 | 83 | 717.9 |
| 20260902091138 | 5 | 239 | 12.9 | 17.7 | 0.00 | 0.00 | 0.00 | 83 | 717.8 |
| 20260902090526 | 4 | 252 | 17.7 | 24.1 | 0.00 | 0.00 | 0.00 | 89 | 717.7 |